Find Tianhui-5 2-01

NORAD ID: 60211 Int'l Des: 2024-126 Owner: GCDX Country: CN operational
LEOCIRCULARRETROGRADESSO

Current View

Loading 3D Globe...

About Tianhui-5 2-01

Tianhui-5 2-01 (NORAD 60211) is a satellite launched Jul 4, 2024 by GCDX of CN. It operates in LEO, CIRCULAR, RETROGRADE, SSO orbit with a mass of 1000.00 kg.

Upcoming Passes

Passes for default location (London). Set your location on the main map for personalized predictions.

Altitude History

Loading altitude history...

Two-Line Element Set

1 60211U 24126A 26188.54794273 .00000336 00000-0 42947-4 0 9993
2 60211 97.8222 195.8157 0001584 90.2722 269.8676 14.87578530108919
Epoch: Jul 7, 2026 • Age: 160 hours

Current Status

Altitude 607.4 km
Apogee / Perigee N/A
Velocity 7.56 km/s
Sub-Earth Point 5.91°N, 165.48°W
Launch Date Jul 4, 2024
Age 2 years
Type other

Technical Details

Classification Payload
Mass 1000.00 kg
Dry Mass 1000.00 kg
Total Mass 1000.00 kg
Length 2.00 m
Diameter 2.00 m
Span 14.00 m
Shape Box + 2 Pan
Manufacturer DFHZ
Bus Type CAST-2000
Phase Status In Orbit
Owner/State GCDX/CN

Most Searched